Weather History for Imperial, CA

Change the Weather History Date:

Saturday, May 4, 2013

  Actual Average Record
Temperature  
Mean Temperature 80 °F -  
Max Temperature 98 °F 90 °F 104 °F (2004)
Min Temperature 64 °F 60 °F 49 °F (1950)
Cooling Degree Days 16    
Growing Degree Days 30 (Base 50)    
Moisture  
Dew Point 27 °F    
Average Humidity 16    
Maximum Humidity 30    
Minimum Humidity 6    
Precipitation  
Precipitation 0.00 in - - ()
Sea Level Pressure  
Sea Level Pressure 29.64 in    
Wind  
Wind Speed 9 mph (WSW)    
Max Wind Speed 22 mph    
Max Gust Speed 32 mph    
Visibility 10 miles    
Events      
Averages and records for this station are not official NWS values.
T = Trace of Precipitation, MM = Missing Value Source: NWS Daily Summary

Daily Weather History Graph

Daily Weather History Graph

Search for Another Location

Airport:

Trip Planner

Search our weather history database for the weather conditions in past years. The results will help you decide how hot, cold, wet, or windy it might be!

Date:

Astronomy

May. 04, 2013 Rise Set
Actual Time 5:51 AM PDT 7:26 PM PDT
Civil Twilight 5:25 AM PDT 7:53 PM PDT
Nautical Twilight 4:53 AM PDT 8:25 PM PDT
Astronomical Twilight 4:20 AM PDT 8:58 PM PDT
Moon 2:35 AM PDT (5/4) 2:44 PM PDT (5/4)
Length of Visible Light 14h 27m
Length of Day
13h 34m
Waning Crescent, 26% of the Moon is Illuminated
May 4
Waning Crescent
May 9
New
May 17
First Quarter
May 24
Full
May 31
Last Quarter

Hourly Weather History & Observations

Time (PDT) Temp. Dew Point Humidity Pressure Visibility Wind Dir Wind Speed Gust Speed Precip Events Conditions
12:53 AM 72.0 °F 35.1 °F 26% 29.70 in 10.0 mi West 6.9 mph - N/A   Clear
1:53 AM 70.0 °F 35.1 °F 28% 29.67 in 10.0 mi West 6.9 mph - N/A   Clear
2:53 AM 68.0 °F 28.9 °F 23% 29.67 in 10.0 mi West 3.5 mph - N/A   Clear
3:53 AM 66.0 °F 32.0 °F 28% 29.65 in 10.0 mi WSW 4.6 mph - N/A   Clear
4:53 AM 64.0 °F 32.0 °F 30% 29.65 in 10.0 mi WSW 4.6 mph - N/A   Clear
5:53 AM 66.9 °F 27.0 °F 22% 29.66 in 10.0 mi SW 8.1 mph - N/A   Clear
6:53 AM 68.0 °F 30.0 °F 24% 29.67 in 10.0 mi SW 4.6 mph - N/A   Clear
7:53 AM 77.0 °F 28.9 °F 17% 29.68 in 10.0 mi WSW 5.8 mph - N/A   Clear
8:53 AM 84.9 °F 28.9 °F 13% 29.68 in 10.0 mi WSW 5.8 mph - N/A   Clear
9:53 AM 88.0 °F 30.0 °F 12% 29.68 in 10.0 mi SW 5.8 mph - N/A   Clear
10:53 AM 91.0 °F 19.9 °F 7% 29.68 in 10.0 mi South 9.2 mph - N/A   Clear
11:53 AM 93.0 °F 16.0 °F 6% 29.66 in 10.0 mi Calm Calm - N/A   Clear
12:53 PM 95.0 °F 18.0 °F 6% 29.63 in 10.0 mi SW 8.1 mph - N/A   Clear
1:53 PM 97.0 °F 21.9 °F 7% 29.61 in 10.0 mi SSE 10.4 mph - N/A   Clear
2:53 PM 96.1 °F 18.0 °F 6% 29.59 in 10.0 mi WSW 17.3 mph 21.9 mph N/A   Clear
3:53 PM 95.0 °F 19.9 °F 7% 29.57 in 10.0 mi WSW 15.0 mph 23.0 mph N/A   Clear
4:53 PM 91.9 °F 32.0 °F 12% 29.57 in 9.0 mi WSW 21.9 mph 29.9 mph N/A   Clear
5:53 PM 87.1 °F 30.0 °F 13% 29.57 in 6.0 mi WSW 21.9 mph 32.2 mph N/A   Haze
6:53 PM 82.9 °F 27.0 °F 13% 29.59 in 10.0 mi WSW 18.4 mph 31.1 mph N/A   Clear
7:53 PM 80.1 °F 26.1 °F 14% 29.62 in 10.0 mi West 18.4 mph 26.5 mph N/A   Clear
8:53 PM 78.1 °F 25.0 °F 14% 29.65 in 10.0 mi West 19.6 mph 28.8 mph N/A   Clear
9:53 PM 75.9 °F 25.0 °F 15% 29.66 in 10.0 mi West 13.8 mph 20.7 mph N/A   Clear
10:53 PM 75.0 °F 25.0 °F 16% 29.68 in 10.0 mi West 11.5 mph 20.7 mph N/A   Clear
11:53 PM 75.0 °F 28.9 °F 18% 29.69 in 10.0 mi West 19.6 mph 32.2 mph N/A   Clear